Dover AFB, DE

8:23 PM EST on January 22, 2017 (GMT -0500)
Dover Air Force Base

Weather History for KDOV - November, 2011

Change the Weather History Date:

Wednesday, November 16, 2011

  Actual Average Record
Temperature  
Mean Temperature 60 °F -  
Max Temperature 66 °F 57 °F 78 °F (1955)
Min Temperature 55 °F 37 °F 21 °F (1967)
Degree Days  
Heating Degree Days 4    
Growing Degree Days 10 (Base 50)    
Moisture  
Dew Point 57 °F    
Average Humidity 96    
Maximum Humidity 100    
Minimum Humidity 82    
Precipitation  
Precipitation 1.07 in - - ()
Sea Level Pressure  
Sea Level Pressure 29.79 in    
Wind  
Wind Speed 5 mph (WNW)    
Max Wind Speed 21 mph    
Max Gust Speed 24 mph    
Visibility 7 miles    
Events Rain    
Averages and records for this station are not official NWS values.
T = Trace of Precipitation, MM = Missing Value Source: NWS Daily Summary

Daily Weather History Graph

Daily Weather History Graph

Search for Another Location

Airport or City:

Trip Planner

Search our weather history database for the weather conditions in past years. The results will help you decide how hot, cold, wet, or windy it might be!

Date:

Astronomy

Nov. 16, 2011 Rise Set
Actual Time 6:45 AM EST 4:46 PM EST
Civil Twilight 6:17 AM EST 5:15 PM EST
Nautical Twilight 5:44 AM EST 5:47 PM EST
Astronomical Twilight 5:13 AM EST 6:19 PM EST
Moon 9:57 PM EST (11/16) 11:20 AM EST (11/16)
Length of Visible Light 10h 58m
Length of Day
10h 01m
Waning Gibbous, 70% of the Moon is Illuminated
Nov 16
Waning Gibbous
Nov 18
Last Quarter
Nov 25
New
Dec 2
First Quarter
Dec 10
Full

Hourly Weather History & Observations

Time (EST) Temp. Dew Point Humidity Pressure Visibility Wind Dir Wind Speed Gust Speed Precip Events Conditions
12:16 AM 59.0 °F 55.4 °F 88% 29.95 in 10.0 mi Calm Calm - N/A   Light Drizzle
12:26 AM 59.0 °F 55.4 °F 88% 29.95 in 10.0 mi Calm Calm - N/A   Overcast
12:55 AM 57.9 °F 54.9 °F 90% 29.94 in 10.0 mi North 3.5 mph - 0.00 in   Overcast
1:32 AM 59.0 °F 53.6 °F 82% 29.94 in 10.0 mi Calm Calm - N/A   Light Drizzle
1:49 AM 57.2 °F 55.4 °F 94% 29.93 in 10.0 mi Calm Calm - N/A   Mostly Cloudy
1:55 AM 57.7 °F 54.9 °F 90% 29.93 in 10.0 mi North 3.5 mph - 0.00 in   Overcast
2:41 AM 57.2 °F 55.4 °F 94% 29.94 in 10.0 mi Calm Calm - N/A   Light Drizzle
2:53 AM 57.2 °F 55.4 °F 94% 29.95 in 10.0 mi Calm Calm - N/A   Light Drizzle
2:54 AM 57.2 °F 55.4 °F 94% 29.95 in 10.0 mi Calm Calm - N/A   Light Drizzle
2:55 AM 57.6 °F 55.0 °F 91% 29.95 in 10.0 mi Calm Calm - 0.00 in   Light Drizzle
2:57 AM 57.2 °F 55.4 °F 94% 29.95 in 10.0 mi Calm Calm - N/A   Light Drizzle
3:03 AM 57.2 °F 55.4 °F 94% 29.95 in 10.0 mi Calm Calm - N/A   Overcast
3:55 AM 56.5 °F 54.7 °F 94% 29.93 in 10.0 mi Calm Calm - 0.00 in   Overcast
4:55 AM 56.3 °F 52.9 °F 88% 29.90 in 10.0 mi Calm Calm - N/A   Overcast
5:55 AM 57.0 °F 52.0 °F 83% 29.89 in 10.0 mi East 4.6 mph - N/A   Mostly Cloudy
6:26 AM 57.2 °F 51.8 °F 82% 29.86 in 10.0 mi East 10.4 mph - N/A   Light Drizzle
6:55 AM 56.3 °F 53.2 °F 89% 29.88 in 10.0 mi Variable 3.5 mph - 0.00 in   Light Drizzle
6:57 AM 57.2 °F 53.6 °F 88% 29.88 in 10.0 mi East 4.6 mph - N/A   Scattered Clouds
7:07 AM 57.2 °F 53.6 °F 88% 29.89 in 10.0 mi ESE 9.2 mph - N/A Rain Light Rain
7:55 AM 56.5 °F 54.0 °F 91% 29.89 in 10.0 mi ENE 4.6 mph - 0.05 in   Light Drizzle
7:57 AM 57.2 °F 53.6 °F 88% 29.89 in 10.0 mi East 3.5 mph - N/A   Mostly Cloudy
7:59 AM 57.2 °F 53.6 °F 88% 29.89 in 10.0 mi East 3.5 mph - N/A   Light Drizzle
8:17 AM 55.4 °F 53.6 °F 94% 29.90 in 10.0 mi Calm Calm - N/A Rain Light Rain
8:39 AM 55.4 °F 55.4 °F 100% 29.90 in 4.0 mi Calm Calm - N/A Rain Light Rain
8:44 AM 55.4 °F 55.4 °F 100% 29.89 in 4.0 mi Calm Calm - N/A Rain Rain
8:55 AM 55.9 °F 55.2 °F 97% 29.89 in 5.0 mi Calm Calm - 0.09 in Rain Light Rain
9:25 AM 55.4 °F 55.4 °F 100% 29.88 in 9.0 mi Calm Calm - N/A   Light Drizzle
9:55 AM 55.0 °F 54.5 °F 98% 29.87 in 3.0 mi ENE 3.5 mph - 0.08 in Rain Rain
9:57 AM 55.4 °F 55.4 °F 100% 29.87 in 2.5 mi ENE 4.6 mph - N/A Rain Rain
10:01 AM 55.4 °F 53.6 °F 94% 29.88 in 3.0 mi East 5.8 mph - N/A Rain Rain
10:04 AM 55.4 °F 53.6 °F 94% 29.87 in 2.5 mi East 3.5 mph - N/A Rain Rain
10:05 AM 55.4 °F 53.6 °F 94% 29.87 in 3.0 mi East 3.5 mph - N/A Rain Rain
10:07 AM 55.4 °F 55.4 °F 100% 29.86 in 3.0 mi East 5.8 mph - N/A Rain Rain
10:19 AM 55.4 °F 55.4 °F 100% 29.87 in 2.5 mi East 5.8 mph - N/A Rain Rain
10:22 AM 55.4 °F 55.4 °F 100% 29.86 in 3.0 mi ESE 5.8 mph - N/A Rain Rain
10:31 AM 55.4 °F 55.4 °F 100% 29.84 in 5.0 mi East 6.9 mph - N/A Rain Light Rain
10:50 AM 55.4 °F 55.4 °F 100% 29.83 in 5.0 mi ENE 3.5 mph - N/A Rain Light Rain
10:54 AM 55.4 °F 55.4 °F 100% 29.83 in 4.0 mi Calm Calm - N/A Rain Light Rain
10:55 AM 55.4 °F 55.2 °F 99% 29.83 in 4.0 mi Calm Calm - 0.16 in Rain Light Rain
11:06 AM 55.4 °F 55.4 °F 100% 29.83 in 3.0 mi Calm Calm - N/A Rain Light Rain
11:43 AM 55.4 °F 55.4 °F 100% 29.80 in 2.5 mi Calm Calm - N/A Rain Light Rain
11:50 AM 57.2 °F 55.4 °F 94% 29.80 in 1.8 mi Calm Calm - N/A Rain Rain
11:51 AM 57.2 °F 55.4 °F 94% 29.80 in 2.0 mi Calm Calm - N/A Rain Rain
11:55 AM 56.5 °F 56.1 °F 99% 29.79 in 2.0 mi Calm Calm - 0.09 in Rain Light Rain
12:03 PM 57.2 °F 55.4 °F 94% 29.80 in 3.0 mi Calm Calm - N/A Rain Light Rain
12:06 PM 57.2 °F 55.4 °F 94% 29.79 in 2.5 mi Calm Calm - N/A Rain Light Rain
12:21 PM 57.2 °F 57.2 °F 100% 29.77 in 3.0 mi Calm Calm - N/A Rain Light Rain
12:22 PM 57.2 °F 57.2 °F 100% 29.77 in 3.0 mi Calm Calm - N/A Rain Light Rain
12:38 PM 57.2 °F 57.2 °F 100% 29.76 in 2.5 mi Calm Calm - N/A Rain Light Rain
12:45 PM 57.2 °F 57.2 °F 100% 29.76 in 3.0 mi Calm Calm - N/A Rain Light Rain
12:51 PM 59.0 °F 57.2 °F 94% 29.75 in 6.0 mi ESE 3.5 mph - N/A   Light Drizzle
12:54 PM 59.0 °F 57.2 °F 94% 29.76 in 7.0 mi SSE 4.6 mph - N/A   Overcast
12:55 PM 58.3 °F 58.1 °F 99% 29.76 in 7.0 mi SSE 4.6 mph - 0.08 in   Overcast
12:56 PM 59.0 °F 59.0 °F 100% 29.76 in 7.0 mi SSE 3.5 mph - N/A Rain Light Rain
12:58 PM 59.0 °F 59.0 °F 100% 29.75 in 6.0 mi SSE 3.5 mph - N/A Rain Light Rain
1:22 PM 59.0 °F 59.0 °F 100% 29.75 in 7.0 mi South 4.6 mph - N/A   Overcast
1:32 PM 59.0 °F 59.0 °F 100% 29.74 in 6.0 mi SSE 4.6 mph - N/A   Light Drizzle
1:54 PM 60.8 °F 60.8 °F 100% 29.73 in 2.5 mi SE 4.6 mph - N/A Rain Light Rain
1:55 PM 60.6 °F 60.3 °F 99% 29.73 in 2.5 mi SE 4.6 mph - 0.03 in Rain Light Rain
2:03 PM 60.8 °F 60.8 °F 100% 29.73 in 3.0 mi SSE 4.6 mph - N/A Rain Light Rain
2:12 PM 60.8 °F 60.8 °F 100% 29.72 in 2.5 mi SE 5.8 mph - N/A   Light Drizzle
2:24 PM 60.8 °F 60.8 °F 100% 29.72 in 1.8 mi SSE 4.6 mph - N/A Rain Light Rain
2:35 PM 62.6 °F 62.6 °F 100% 29.71 in 2.0 mi SSE 5.8 mph - N/A Rain Light Rain
2:40 PM 62.6 °F 62.6 °F 100% 29.71 in 3.0 mi SSE 6.9 mph - N/A Rain Light Rain
2:55 PM 62.8 °F 62.6 °F 99% 29.70 in 6.0 mi SSE 6.9 mph - 0.09 in Rain Light Rain
3:00 PM 62.6 °F 62.6 °F 100% 29.70 in 6.0 mi SSE 8.1 mph - N/A Rain Light Rain
3:09 PM 62.6 °F 62.6 °F 100% 29.68 in 7.0 mi SE 8.1 mph - N/A Rain Light Rain
3:24 PM 64.4 °F 64.4 °F 100% 29.69 in 10.0 mi South 9.2 mph - N/A   Light Drizzle
3:32 PM 64.4 °F 64.4 °F 100% 29.70 in 10.0 mi South 8.1 mph - N/A   Overcast
3:36 PM 64.4 °F 64.4 °F 100% 29.69 in 10.0 mi South 9.2 mph - N/A   Overcast
3:54 PM 66.2 °F 64.4 °F 94% 29.69 in 10.0 mi SSW 9.2 mph - N/A   Overcast
3:55 PM 65.7 °F 64.8 °F 97% 29.69 in 10.0 mi SSW 9.2 mph - 0.01 in   Overcast
4:07 PM 66.2 °F 64.4 °F 94% 29.69 in 10.0 mi SSW 8.1 mph - N/A   Overcast
4:08 PM 66.2 °F 64.4 °F 94% 29.69 in 10.0 mi SSW 9.2 mph - N/A   Overcast
4:11 PM 66.2 °F 64.4 °F 94% 29.69 in 10.0 mi SSW 9.2 mph - N/A   Overcast
4:28 PM 66.2 °F 64.4 °F 94% 29.69 in 10.0 mi SSW 11.5 mph - N/A   Mostly Cloudy
4:29 PM 66.2 °F 64.4 °F 94% 29.69 in 10.0 mi SSW 11.5 mph - N/A   Mostly Cloudy
4:30 PM 66.2 °F 64.4 °F 94% 29.69 in 10.0 mi SW 10.4 mph - N/A   Mostly Cloudy
4:33 PM 66.2 °F 64.4 °F 94% 29.69 in 10.0 mi SSW 10.4 mph - N/A   Mostly Cloudy
4:55 PM 65.5 °F 64.4 °F 96% 29.70 in 10.0 mi SSW 10.4 mph - N/A   Overcast
5:10 PM 66.2 °F 64.4 °F 94% 29.70 in 10.0 mi SSW 10.4 mph - N/A   Overcast
5:18 PM 66.2 °F 64.4 °F 94% 29.70 in 10.0 mi SSW 10.4 mph - N/A   Mostly Cloudy
5:40 PM 66.2 °F 64.4 °F 94% 29.71 in 8.0 mi West 8.1 mph - N/A   Overcast
5:41 PM 66.2 °F 64.4 °F 94% 29.71 in 8.0 mi West 8.1 mph - N/A   Overcast
5:43 PM 66.2 °F 64.4 °F 94% 29.71 in 8.0 mi WSW 8.1 mph - N/A   Overcast
5:44 PM 66.2 °F 64.4 °F 94% 29.71 in 8.0 mi WSW 8.1 mph - N/A   Overcast
5:46 PM 66.2 °F 64.4 °F 94% 29.71 in 8.0 mi WSW 9.2 mph - N/A   Overcast
5:54 PM 66.2 °F 64.4 °F 94% 29.71 in 9.0 mi West 17.3 mph 23.0 mph N/A   Overcast
5:55 PM 66.2 °F 64.2 °F 93% 29.71 in 9.0 mi WNW 17.3 mph 23.0 mph N/A   Overcast
5:57 PM 66.2 °F 64.4 °F 94% 29.72 in 8.0 mi WNW 20.7 mph - N/A   Overcast
5:58 PM 66.2 °F 62.6 °F 88% 29.72 in 8.0 mi WNW 20.7 mph - N/A   Drizzle
6:00 PM 64.4 °F 62.6 °F 94% 29.73 in 7.0 mi WNW 18.4 mph 24.2 mph N/A   Light Drizzle
6:04 PM 62.6 °F 60.8 °F 94% 29.73 in 7.0 mi WNW 16.1 mph - N/A   Light Drizzle
6:11 PM 60.8 °F 59.0 °F 94% 29.73 in 8.0 mi WNW 15.0 mph - N/A   Overcast
6:12 PM 60.8 °F 59.0 °F 94% 29.74 in 7.0 mi WNW 15.0 mph - N/A   Overcast
6:24 PM 59.0 °F 59.0 °F 100% 29.74 in 9.0 mi WNW 12.7 mph - N/A   Overcast
6:27 PM 59.0 °F 57.2 °F 94% 29.74 in 10.0 mi WNW 10.4 mph - N/A   Overcast
6:39 PM 59.0 °F 57.2 °F 94% 29.74 in 10.0 mi WNW 10.4 mph - N/A   Overcast
6:40 PM 59.0 °F 57.2 °F 94% 29.74 in 10.0 mi WNW 9.2 mph - N/A Rain Light Rain
6:55 PM 58.3 °F 57.0 °F 96% 29.75 in 10.0 mi WNW 9.2 mph - 0.00 in Rain Light Rain
7:05 PM 59.0 °F 57.2 °F 94% 29.75 in 10.0 mi NW 10.4 mph - N/A   Overcast
7:14 PM 57.2 °F 57.2 °F 100% 29.74 in 10.0 mi NW 10.4 mph - N/A Rain Light Rain
7:23 PM 57.2 °F 57.2 °F 100% 29.75 in 10.0 mi NW 12.7 mph - N/A   Light Drizzle
7:25 PM 57.2 °F 57.2 °F 100% 29.75 in 10.0 mi NW 12.7 mph - N/A   Overcast
7:27 PM 57.2 °F 57.2 °F 100% 29.75 in 10.0 mi NW 12.7 mph - N/A   Overcast
7:29 PM 57.2 °F 57.2 °F 100% 29.76 in 9.0 mi WNW 12.7 mph - N/A Rain Light Rain
7:40 PM 57.2 °F 57.2 °F 100% 29.77 in 5.0 mi NW 10.4 mph - N/A Rain Rain
7:42 PM 57.2 °F 57.2 °F 100% 29.77 in 5.0 mi NW 13.8 mph - N/A Rain Light Rain
7:50 PM 57.2 °F 55.4 °F 94% 29.76 in 9.0 mi NW 16.1 mph 24.2 mph N/A Rain Light Rain
7:55 PM 57.6 °F 56.3 °F 96% 29.76 in 9.0 mi NW 16.1 mph 24.2 mph 0.04 in Rain Light Rain
8:23 PM 57.2 °F 55.4 °F 94% 29.76 in 10.0 mi NW 15.0 mph - N/A Rain Light Rain
8:25 PM 57.2 °F 55.4 °F 94% 29.76 in 10.0 mi NW 17.3 mph - N/A Rain Light Rain
8:28 PM 57.2 °F 55.4 °F 94% 29.75 in 10.0 mi NW 18.4 mph 24.2 mph N/A Rain Light Rain
8:55 PM 56.5 °F 55.0 °F 95% 29.76 in 10.0 mi NNW 13.8 mph - 0.02 in Rain Light Rain
9:08 PM 57.2 °F 55.4 °F 94% 29.75 in 10.0 mi NNW 15.0 mph - N/A Rain Light Rain
9:37 PM 55.4 °F 53.6 °F 94% 29.77 in 7.0 mi NNW 11.5 mph - N/A Rain Rain
9:42 PM 55.4 °F 53.6 °F 94% 29.77 in 7.0 mi NNW 9.2 mph - N/A Rain Rain
9:47 PM 55.4 °F 55.4 °F 100% 29.77 in 6.0 mi NNW 6.9 mph - N/A Rain Rain
9:55 PM 55.6 °F 54.5 °F 96% 29.78 in 4.0 mi NNW 10.4 mph - 0.09 in Rain Heavy Rain
9:59 PM 55.4 °F 55.4 °F 100% 29.79 in 4.0 mi NW 8.1 mph - N/A Rain Heavy Rain
10:03 PM 55.4 °F 55.4 °F 100% 29.80 in 4.0 mi NW 8.1 mph - N/A Rain Heavy Rain
10:11 PM 55.4 °F 55.4 °F 100% 29.78 in 3.0 mi NNW 8.1 mph - N/A Rain Heavy Rain
10:15 PM 55.4 °F 55.4 °F 100% 29.77 in 3.0 mi North 5.8 mph - N/A Rain Heavy Rain
10:20 PM 55.4 °F 53.6 °F 94% 29.77 in 4.0 mi North 8.1 mph - N/A Rain Rain
10:23 PM 55.4 °F 53.6 °F 94% 29.77 in 4.0 mi North 8.1 mph - N/A Rain Rain
10:26 PM 55.4 °F 53.6 °F 94% 29.78 in 5.0 mi NNW 8.1 mph - N/A Rain Rain
10:30 PM 55.4 °F 53.6 °F 94% 29.78 in 5.0 mi NW 8.1 mph - N/A Rain Rain
10:43 PM 55.4 °F 53.6 °F 94% 29.78 in 5.0 mi NW 9.2 mph - N/A Rain Rain
10:44 PM 55.4 °F 53.6 °F 94% 29.78 in 5.0 mi NW 9.2 mph - N/A Rain Rain
10:48 PM 55.4 °F 53.6 °F 94% 29.79 in 7.0 mi NW 9.2 mph - N/A Rain Light Rain
10:55 PM 55.2 °F 54.7 °F 98% 29.79 in 10.0 mi NW 8.1 mph - 0.21 in Rain Light Rain
10:59 PM 55.4 °F 55.4 °F 100% 29.80 in 10.0 mi NW 9.2 mph - N/A Rain Light Rain
11:02 PM 55.4 °F 55.4 °F 100% 29.80 in 10.0 mi NW 9.2 mph - N/A Rain Light Rain
11:03 PM 55.4 °F 55.4 °F 100% 29.80 in 10.0 mi NW 8.1 mph - N/A Rain Light Rain
11:14 PM 55.4 °F 53.6 °F 94% 29.80 in 8.0 mi NW 9.2 mph - N/A Rain Light Rain
11:23 PM 55.4 °F 53.6 °F 94% 29.81 in 10.0 mi NW 8.1 mph - N/A Rain Light Rain
11:26 PM 55.4 °F 53.6 °F 94% 29.81 in 10.0 mi WNW 8.1 mph - N/A Rain Light Rain
11:27 PM 55.4 °F 53.6 °F 94% 29.81 in 10.0 mi WNW 9.2 mph - N/A   Light Drizzle
11:31 PM 55.4 °F 53.6 °F 94% 29.81 in 10.0 mi WNW 8.1 mph - N/A   Light Drizzle
11:37 PM 55.4 °F 53.6 °F 94% 29.81 in 7.0 mi WNW 9.2 mph - N/A Rain Light Rain
11:43 PM 55.4 °F 53.6 °F 94% 29.82 in 5.0 mi West 5.8 mph - N/A Rain Light Rain
11:55 PM 55.0 °F 54.5 °F 98% 29.82 in 4.0 mi WNW 6.9 mph - 0.03 in   Drizzle
11:58 PM 55.4 °F 53.6 °F 94% 29.81 in 4.0 mi WNW 6.9 mph - N/A Rain Light Rain